Regional Weather Roundup
Issued by NWS

Home | Current Version | Previous Version | Graphics & Text | Print | Product List | Glossary On
Versions: 1 2 3 4 5 6 7 8 9 10 11 12 13 14 15 16 17 18 19 20 21 22 23 24 25 26 27 28 29 30 31 32 33 34 35 36 37 38 39 40 41 42 43 44 45 46 47 48 49 50
000
ASUS45 KSLC 270510
RWRUT

UTAH REGIONAL WEATHER ROUNDUP
NATIONAL WEATHER SERVICE SALT LAKE CITY UT
1000 PM MST THU FEB 26 2015

UTZ001>011-023>025-270600-

NORTHERN UTAH

CITY           SKY/WX    TMP DP  RH WIND       PRES   REMARKS
BRIGHAM CITY   CLEAR     30  27  86 CALM      29.93R
HILL AFB       MOCLDY    31  26  83 S1        29.91R
LOGAN          CLEAR     25  20  81 NE3       29.91S
OGDEN          PTCLDY    30  27  88 CALM      29.91R
PROVO AIRPORT  MOCLDY    36  28  75 W6        29.92S WCI  31
SALT LAKE CITY MOCLDY    34  30  85 CALM      29.92R
VERNAL         CLOUDY    29  17  61 E10       29.88R WCI  20
WENDOVER       CLOUDY    39  23  52 CALM      29.93S
HEBER CITY     CLOUDY    32  23  69 CALM      29.87S
WEST JORDAN    CLOUDY    32  32 100 W5        29.92S WCI  27

$$

UTZ012>022-026-027-270600-

SOUTHERN/CENTRAL UTAH

CITY           SKY/WX    TMP DP  RH WIND       PRES   REMARKS
BLANDING       CLEAR     19  19  99 N6        29.94S WCI  11
BRYCE CANYON   FLURRIES  26  23  88 N5        29.89R WCI  20
CEDAR CITY     PTCLDY    32  25  75 N7        29.89S WCI  26
DELTA          CLOUDY    34  25  71 CALM      29.92S
HANKSVILLE     CLEAR     27  25  93 CALM      29.89S
MILFORD        MOCLDY    35  24  64 NW6       29.91S WCI  30
MOAB/CYNLANDS  CLOUDY    36  28  73 CALM      29.85S
PRICE          CLOUDY    31  27  85 CALM      29.84F
ST GEORGE      PTCLDY    50  27  40 NE12G23   29.86R
KANAB            N/A     37  27  65 NW10      29.90S WCI  30

$$

REGIONAL REPORTS     COLORADO/ARIZONA

CITY           SKY/WX    TMP DP  RH WIND       PRES   REMARKS
CRAIG, CO      CLOUDY    24  18  77 VRB3      29.88R
GRAND JUNCTION CLOUDY    35  25  66 N5        29.85R WCI  31
RIFLE          CLOUDY    32  25  75 E7        29.84S WCI  26
MONTROSE       CLOUDY    32  23  69 SE5       29.88R WCI  27
CORTEZ         LGT SNOW  29  28  96 CALM      29.86S VSB 3/4
PAGE, AZ       CLOUDY    41  29  62 CALM      29.86R
GRAND CANYON   PTCLDY    26  22  84 CALM      29.89S
KINGMAN        CLEAR     42  27  55 S6        29.83S
FLAGSTAFF      CLEAR     34  15  46 VRB3      29.89R

$$

REGIONAL REPORTS    NEVADA/IDAHO/WYOMING

CITY           SKY/WX    TMP DP  RH WIND       PRES   REMARKS
LAS VEGAS, NV  PTCLDY    60  24  25 CALM      29.75R
ELY            MOCLDY    30  19  63 N5        29.92F WCI  25
ELKO           CLOUDY    34  26  72 S3        29.93S
POCATELLO, ID  FLURRIES  34  23  64 E5        29.92S WCI  30
BURLEY         MOCLDY    33  30  88 S9        29.89F WCI  25
EVANSTON, WY   CLOUDY    22  20  92 CALM      29.86F
ROCK SPRINGS   PTCLDY     7   3  84 NE13      29.95R WCI  -9

$$


USA.gov is the U.S. government's official web portal to all federal, state and local government web resources and services.